Time,TemperatureF,DewpointF,PressureIn,WindDirection,WindDirectionDegrees,WindSpeedMPH,WindSpeedGustMPH,Humidity,HourlyPrecipIn,Conditions,Clouds,dailyrainin,SolarRadiationWatts/m^2,SoftwareType,DateUTC
2013-03-27 00:00:00,30.0,22.0,-100.00,NNW,337,4.0,-999.0,72,-99.99,,,-99.99,0.000000,,2013-03-27 05:00:00,
2013-03-27 00:42:00,30.0,22.0,-100.00,NNW,337,4.0,-999.0,72,-99.99,,,-99.99,0.000000,,2013-03-27 05:42:00,
2013-03-27 00:52:00,30.0,22.0,-100.00,NNW,337,4.0,-999.0,72,-99.99,,,-99.99,0.000000,,2013-03-27 05:52:00,
2013-03-27 02:00:00,29.0,22.0,-100.00,NW,315,5.0,-999.0,74,-99.99,,,-99.99,0.000000,,2013-03-27 07:00:00,
2013-03-27 02:43:00,29.0,22.0,-100.00,NW,315,5.0,-999.0,74,-99.99,,,-99.99,0.000000,,2013-03-27 07:43:00,
2013-03-27 02:53:00,29.0,22.0,-100.00,NW,315,5.0,-999.0,74,-99.99,,,-99.99,0.000000,,2013-03-27 07:53:00,
2013-03-27 04:00:00,28.0,21.0,-100.00,WNW,292,6.0,-999.0,74,-99.99,,,-99.99,0.000000,,2013-03-27 09:00:00,
2013-03-27 04:42:00,28.0,21.0,-100.00,WNW,292,6.0,-999.0,74,-99.99,,,-99.99,0.000000,,2013-03-27 09:42:00,
2013-03-27 04:52:00,28.0,21.0,-100.00,WNW,292,6.0,-999.0,74,-99.99,,,-99.99,0.000000,,2013-03-27 09:52:00,
2013-03-27 05:00:00,27.0,21.0,-100.00,WNW,292,6.0,-999.0,77,-99.99,,,-99.99,0.000000,,2013-03-27 10:00:00,
2013-03-27 05:42:00,27.0,21.0,-100.00,WNW,292,6.0,-999.0,77,-99.99,,,-99.99,0.000000,,2013-03-27 10:42:00,
2013-03-27 05:53:00,27.0,21.0,-100.00,WNW,292,6.0,-999.0,77,-99.99,,,-99.99,0.000000,,2013-03-27 10:53:00,
2013-03-27 06:00:00,27.0,20.0,-100.00,WNW,292,6.0,-999.0,76,-99.99,,,-99.99,0.000000,,2013-03-27 11:00:00,
2013-03-27 06:42:00,27.0,20.0,-100.00,WNW,292,6.0,-999.0,76,-99.99,,,-99.99,0.000000,,2013-03-27 11:42:00,
2013-03-27 06:53:00,27.0,20.0,-100.00,WNW,292,6.0,-999.0,76,-99.99,,,-99.99,0.000000,,2013-03-27 11:53:00,
2013-03-27 08:00:00,26.0,19.0,-100.00,WNW,292,6.0,-999.0,75,-99.99,,,-99.99,23.200001,,2013-03-27 13:00:00,
2013-03-27 08:42:00,26.0,19.0,-100.00,WNW,292,6.0,-999.0,75,-99.99,,,-99.99,23.200001,,2013-03-27 13:42:00,
2013-03-27 08:53:00,26.0,19.0,-100.00,WNW,292,6.0,-999.0,75,-99.99,,,-99.99,23.200001,,2013-03-27 13:53:00,
2013-03-27 09:00:00,28.0,20.0,-100.00,WNW,292,6.0,-999.0,72,-99.99,,,-99.99,109.040001,,2013-03-27 14:00:00,
2013-03-27 09:42:00,28.0,20.0,-100.00,WNW,292,6.0,-999.0,72,-99.99,,,-99.99,109.040001,,2013-03-27 14:42:00,
2013-03-27 09:52:00,28.0,20.0,-100.00,WNW,292,6.0,-999.0,72,-99.99,,,-99.99,109.040001,,2013-03-27 14:52:00,
2013-03-27 10:00:00,32.0,21.0,-100.00,NW,315,5.0,-999.0,65,-99.99,,,-99.99,366.559998,,2013-03-27 15:00:00,
2013-03-27 10:43:00,32.0,21.0,-100.00,NW,315,5.0,-999.0,65,-99.99,,,-99.99,366.559998,,2013-03-27 15:43:00,
2013-03-27 10:52:00,32.0,21.0,-100.00,NW,315,5.0,-999.0,65,-99.99,,,-99.99,366.559998,,2013-03-27 15:52:00,
2013-03-27 11:00:00,35.0,22.0,-100.00,NW,315,5.0,-999.0,58,-99.99,,,-99.99,615.960022,,2013-03-27 16:00:00,
2013-03-27 11:42:00,35.0,22.0,-100.00,NW,315,5.0,-999.0,58,-99.99,,,-99.99,615.960022,,2013-03-27 16:42:00,
2013-03-27 11:52:00,35.0,22.0,-100.00,NW,315,5.0,-999.0,58,-99.99,,,-99.99,615.960022,,2013-03-27 16:52:00,
2013-03-27 12:00:00,39.0,22.0,-100.00,NW,315,6.0,-999.0,50,-99.99,,,-99.99,721.520020,,2013-03-27 17:00:00,
2013-03-27 12:44:00,39.0,22.0,-100.00,NW,315,6.0,-999.0,50,-99.99,,,-99.99,721.520020,,2013-03-27 17:44:00,
2013-03-27 12:52:00,39.0,22.0,-100.00,NW,315,6.0,-999.0,50,-99.99,,,-99.99,721.520020,,2013-03-27 17:52:00,
2013-03-27 13:00:00,41.0,21.0,-100.00,WNW,292,5.0,-999.0,45,-99.99,,,-99.99,773.719971,,2013-03-27 18:00:00,
2013-03-27 13:42:00,41.0,21.0,-100.00,WNW,292,5.0,-999.0,45,-99.99,,,-99.99,773.719971,,2013-03-27 18:42:00,
2013-03-27 13:53:00,41.0,21.0,-100.00,WNW,292,5.0,-999.0,45,-99.99,,,-99.99,773.719971,,2013-03-27 18:53:00,
2013-03-27 14:00:00,42.0,20.0,-100.00,WNW,292,5.0,-999.0,39,-99.99,,,-99.99,770.239990,,2013-03-27 19:00:00,
2013-03-27 14:42:00,42.0,20.0,-100.00,WNW,292,5.0,-999.0,39,-99.99,,,-99.99,770.239990,,2013-03-27 19:42:00,
2013-03-27 14:52:00,42.0,20.0,-100.00,WNW,292,5.0,-999.0,39,-99.99,,,-99.99,770.239990,,2013-03-27 19:52:00,
2013-03-27 15:00:00,43.0,18.0,-100.00,WNW,292,4.0,-999.0,36,-99.99,,,-99.99,712.239990,,2013-03-27 20:00:00,
2013-03-27 15:43:00,43.0,18.0,-100.00,WNW,292,4.0,-999.0,36,-99.99,,,-99.99,712.239990,,2013-03-27 20:43:00,
2013-03-27 15:52:00,43.0,18.0,-100.00,WNW,292,4.0,-999.0,36,-99.99,,,-99.99,712.239990,,2013-03-27 20:52:00,
2013-03-27 16:00:00,45.0,18.0,-100.00,West,270,4.0,-999.0,34,-99.99,,,-99.99,603.200012,,2013-03-27 21:00:00,
2013-03-27 16:43:00,45.0,18.0,-100.00,West,270,4.0,-999.0,34,-99.99,,,-99.99,603.200012,,2013-03-27 21:43:00,
2013-03-27 16:52:00,45.0,18.0,-100.00,West,270,4.0,-999.0,34,-99.99,,,-99.99,603.200012,,2013-03-27 21:52:00,
2013-03-27 17:00:00,45.0,17.0,-100.00,West,270,3.0,-999.0,32,-99.99,,,-99.99,450.079987,,2013-03-27 22:00:00,
2013-03-27 17:42:00,45.0,17.0,-100.00,West,270,3.0,-999.0,32,-99.99,,,-99.99,450.079987,,2013-03-27 22:42:00,
2013-03-27 17:53:00,45.0,17.0,-100.00,West,270,3.0,-999.0,32,-99.99,,,-99.99,450.079987,,2013-03-27 22:53:00,
2013-03-27 18:00:00,44.0,18.0,-100.00,WNW,292,2.0,-999.0,34,-99.99,,,-99.99,226.199997,,2013-03-27 23:00:00,
2013-03-27 18:43:00,44.0,18.0,-100.00,WNW,292,2.0,-999.0,34,-99.99,,,-99.99,226.199997,,2013-03-27 23:43:00,
2013-03-27 18:52:00,44.0,18.0,-100.00,WNW,292,2.0,-999.0,34,-99.99,,,-99.99,226.199997,,2013-03-27 23:52:00,
2013-03-27 19:00:00,40.0,21.0,-100.00,SSE,157,1.0,-999.0,46,-99.99,,,-99.99,26.680000,,2013-03-28 00:00:00,
2013-03-27 19:43:00,40.0,21.0,-100.00,SSE,157,1.0,-999.0,46,-99.99,,,-99.99,26.680000,,2013-03-28 00:43:00,
2013-03-27 19:52:00,40.0,21.0,-100.00,SSE,157,1.0,-999.0,46,-99.99,,,-99.99,26.680000,,2013-03-28 00:52:00,
2013-03-27 20:00:00,32.0,21.0,-100.00,East,90,0.0,-999.0,63,-99.99,,,-99.99,2.320000,,2013-03-28 01:00:00,
2013-03-27 20:42:00,32.0,21.0,-100.00,East,90,0.0,-999.0,63,-99.99,,,-99.99,2.320000,,2013-03-28 01:42:00,
2013-03-27 20:53:00,32.0,21.0,-100.00,East,90,0.0,-999.0,63,-99.99,,,-99.99,2.320000,,2013-03-28 01:53:00,
2013-03-27 21:00:00,28.0,21.0,-100.00,ENE,67,0.0,-999.0,75,-99.99,,,-99.99,0.000000,,2013-03-28 02:00:00,
2013-03-27 22:00:00,25.0,20.0,-100.00,NNE,22,0.0,-999.0,80,-99.99,,,-99.99,0.000000,,2013-03-28 03:00:00,
2013-03-27 22:43:00,25.0,20.0,-100.00,NNE,22,0.0,-999.0,80,-99.99,,,-99.99,0.000000,,2013-03-28 03:43:00,
2013-03-27 22:53:00,25.0,20.0,-100.00,NNE,22,0.0,-999.0,80,-99.99,,,-99.99,0.000000,,2013-03-28 03:53:00,
2013-03-27 23:00:00,23.0,19.0,-100.00,North,0,0.0,-999.0,84,-99.99,,,-99.99,0.000000,,2013-03-28 04:00:00,
2013-03-27 23:42:00,23.0,19.0,-100.00,North,0,0.0,-999.0,84,-99.99,,,-99.99,0.000000,,2013-03-28 04:42:00,
2013-03-27 23:52:00,23.0,19.0,-100.00,North,0,0.0,-999.0,84,-99.99,,,-99.99,0.000000,,2013-03-28 04:52:00,